| time (UTC) | temp F | wind direction | speed MPH | gust MPH | rain 1hr in | rain 24hr in | rain mn in | humidity % | barometer mb |
| 20260905032003 | 69 | 25 | 3.0 | 5.0 | 0.00 | 0.00 | 0.00 | 89 | 1014.3 |
| 20260905031004 | 69 | 295 | 1.0 | 3.0 | 0.00 | 0.00 | 0.00 | 88 | 1014.3 |
| 20260905023002 | 69 | 318 | 1.0 | 3.0 | 0.00 | 0.00 | 0.00 | 88 | 1014.2 |
| 20260905022004 | 68 | 340 | 3.0 | 4.0 | 0.00 | 0.00 | 0.00 | 88 | 1014.2 |
| 20260905021005 | 68 | 273 | 1.0 | 3.0 | 0.00 | 0.00 | 0.00 | 88 | 1014.1 |
| 20260905020006 | 68 | 250 | 0.0 | 1.0 | 0.00 | 0.00 | 0.00 | 88 | 1014.2 |
| 20260905015002 | 68 | 340 | 1.0 | 2.0 | 0.00 | 0.00 | 0.00 | 88 | 1014.1 |
| 20260905014003 | 68 | 318 | 1.0 | 1.0 | 0.00 | 0.00 | 0.00 | 88 | 1014.1 |
| 20260905013004 | 69 | 318 | 2.0 | 3.0 | 0.00 | 0.00 | 0.00 | 87 | 1014.0 |
| 20260905012005 | 69 | 318 | 1.0 | 1.0 | 0.00 | 0.00 | 0.00 | 87 | 1014.0 |
| 20260905011006 | 70 | 273 | 1.0 | 2.0 | 0.00 | 0.00 | 0.00 | 87 | 1013.8 |
| 20260905010007 | 70 | 295 | 3.0 | 4.0 | 0.00 | 0.00 | 0.00 | 87 | 1014.0 |
| 20260905004001 | 70 | 273 | 3.0 | 6.0 | 0.00 | 0.01 | 0.00 | 87 | 1014.0 |
| 20260905002002 | 71 | 318 | 2.0 | 4.0 | 0.00 | 0.04 | 0.00 | 86 | 1014.0 |
| 20260905001003 | 71 | 318 | 2.0 | 5.0 | 0.00 | 0.07 | 0.00 | 86 | 1013.9 |
| 20260905000012 | 71 | 3 | 1.0 | 2.0 | 0.00 | 0.10 | 0.00 | 85 | 1014.0 |
| 20260904235005 | 71 | 318 | 1.0 | 2.0 | 0.00 | 0.12 | 0.00 | 84 | 1014.0 |
| 20260904233005 | 72 | 318 | 3.0 | 6.0 | 0.00 | 0.17 | 0.00 | 83 | 1014.1 |
| 20260904232006 | 72 | 318 | 4.0 | 5.0 | 0.00 | 0.19 | 0.00 | 83 | 1014.1 |
| 20260904231007 | 72 | 318 | 2.0 | 3.0 | 0.00 | 0.19 | 0.00 | 84 | 1013.9 |
| 20260904230002 | 72 | 3 | 2.0 | 4.0 | 0.00 | 0.19 | 0.00 | 84 | 1013.8 |
| 20260904225003 | 72 | 3 | 4.0 | 5.0 | 0.00 | 0.19 | 0.00 | 84 | 1013.7 |
| 20260904224004 | 72 | 250 | 3.0 | 4.0 | 0.00 | 0.19 | 0.00 | 84 | 1013.7 |
| 20260904221005 | 73 | 340 | 3.0 | 5.0 | 0.00 | 0.19 | 0.00 | 83 | 1013.4 |
| 20260904220006 | 73 | 48 | 2.0 | 3.0 | 0.00 | 0.19 | 0.00 | 83 | 1013.1 |
| 20260904215007 | 73 | 340 | 5.0 | 7.0 | 0.00 | 0.19 | 0.00 | 81 | 1013.2 |
| 20260904214002 | 74 | 25 | 3.0 | 6.0 | 0.00 | 0.19 | 0.00 | 80 | 1012.9 |
| 20260904213003 | 74 | 25 | 3.0 | 7.0 | 0.00 | 0.19 | 0.00 | 80 | 1012.9 |
| 20260904212004 | 75 | 25 | 3.0 | 4.0 | 0.00 | 0.19 | 0.00 | 79 | 1012.8 |
| 20260904211005 | 76 | 3 | 4.0 | 6.0 | 0.00 | 0.19 | 0.00 | 76 | 1012.9 |
| 20260904210006 | 78 | 340 | 3.0 | 6.0 | 0.00 | 0.19 | 0.00 | 73 | 1013.0 |
| 20260904205009 | 77 | 318 | 2.0 | 6.0 | 0.00 | 0.19 | 0.00 | 76 | 1013.1 |
| 20260904204002 | 77 | 228 | 4.0 | 9.0 | 0.00 | 0.19 | 0.00 | 75 | 1013.2 |
| 20260904202002 | 77 | 295 | 2.0 | 4.0 | 0.00 | 0.19 | 0.00 | 75 | 1013.3 |
| 20260904201004 | 79 | 295 | 2.0 | 5.0 | 0.00 | 0.19 | 0.00 | 74 | 1013.7 |
| 20260904200005 | 78 | 318 | 1.0 | 2.0 | 0.00 | 0.19 | 0.00 | 76 | 1013.6 |
| 20260904195006 | 78 | 273 | 2.0 | 4.0 | 0.00 | 0.19 | 0.00 | 76 | 1013.7 |
| 20260904194001 | 77 | 340 | 1.0 | 4.0 | 0.00 | 0.19 | 0.00 | 78 | 1014.0 |
| 20260904193003 | 76 | 295 | 1.0 | 4.0 | 0.00 | 0.19 | 0.00 | 79 | 1013.9 |
| 20260904192003 | 76 | 273 | 3.0 | 5.0 | 0.00 | 0.19 | 0.00 | 78 | 1014.1 |
| 20260904190004 | 76 | 250 | 2.0 | 6.0 | 0.00 | 0.19 | 0.00 | 79 | 1014.3 |
| 20260904185005 | 76 | 273 | 2.0 | 4.0 | 0.00 | 0.19 | 0.00 | 80 | 1014.5 |
| 20260904184006 | 75 | 318 | 2.0 | 6.0 | 0.00 | 0.19 | 0.00 | 81 | 1014.7 |
| 20260904183007 | 75 | 273 | 3.0 | 6.0 | 0.00 | 0.19 | 0.00 | 80 | 1014.9 |
| 20260904182002 | 75 | 318 | 2.0 | 6.0 | 0.00 | 0.19 | 0.00 | 80 | 1015.0 |
| 20260904181003 | 75 | 25 | 2.0 | 3.0 | 0.00 | 0.19 | 0.00 | 80 | 1015.1 |
| 20260904180004 | 76 | 183 | 3.0 | 6.0 | 0.00 | 0.19 | 0.00 | 78 | 1015.2 |
| 20260904175005 | 77 | 295 | 2.0 | 6.0 | 0.00 | 0.19 | 0.00 | 76 | 1015.1 |
| 20260904174007 | 77 | 250 | 4.0 | 6.0 | 0.00 | 0.19 | 0.00 | 75 | 1015.1 |
| 20260904172002 | 76 | 318 | 5.0 | 8.0 | 0.00 | 0.19 | 0.00 | 78 | 1015.6 |
| 20260904170002 | 75 | 273 | 4.0 | 7.0 | 0.00 | 0.19 | 0.00 | 79 | 1015.7 |
| 20260904165003 | 75 | 250 | 2.0 | 5.0 | 0.00 | 0.19 | 0.00 | 79 | 1015.7 |
| 20260904164004 | 75 | 318 | 2.0 | 6.0 | 0.00 | 0.19 | 0.00 | 79 | 1015.8 |
| 20260904162006 | 76 | 318 | 3.0 | 6.0 | 0.00 | 0.19 | 0.00 | 75 | 1015.8 |
| 20260904161007 | 76 | 205 | 3.0 | 7.0 | 0.00 | 0.19 | 0.00 | 75 | 1015.6 |
| 20260904160008 | 77 | 318 | 2.0 | 4.0 | 0.00 | 0.19 | 0.00 | 75 | 1015.7 |
| 20260904155003 | 76 | 273 | 2.0 | 6.0 | 0.00 | 0.19 | 0.00 | 77 | 1015.8 |
| 20260904154004 | 76 | 318 | 2.0 | 3.0 | 0.00 | 0.19 | 0.00 | 77 | 1015.7 |
| 20260904153005 | 76 | 3 | 2.0 | 5.0 | 0.00 | 0.19 | 0.00 | 76 | 1015.7 |
| 20260904152005 | 76 | 295 | 4.0 | 7.0 | 0.00 | 0.19 | 0.00 | 77 | 1015.7 |
| 20260904151006 | 75 | 228 | 3.0 | 7.0 | 0.00 | 0.19 | 0.00 | 77 | 1015.7 |
| 20260904150007 | 75 | 250 | 1.0 | 4.0 | 0.00 | 0.19 | 0.00 | 79 | 1015.4 |
| 20260904145003 | 75 | 273 | 5.0 | 9.0 | 0.00 | 0.19 | 0.00 | 79 | 1015.5 |
| 20260904144004 | 75 | 340 | 2.0 | 3.0 | 0.00 | 0.19 | 0.00 | 78 | 1015.4 |
| 20260904143005 | 76 | 273 | 1.0 | 4.0 | 0.00 | 0.19 | 0.00 | 78 | 1015.3 |
| 20260904142005 | 75 | 318 | 2.0 | 6.0 | 0.00 | 0.19 | 0.00 | 77 | 1015.2 |
| 20260904141006 | 74 | 250 | 6.0 | 9.0 | 0.00 | 0.19 | 0.00 | 79 | 1015.0 |
| 20260904140000 | 76 | 340 | 3.0 | 6.0 | 0.00 | 0.19 | 0.00 | 79 | 1014.8 |
| 20260904135002 | 75 | 318 | 1.0 | 3.0 | 0.00 | 0.19 | 0.00 | 83 | 1014.8 |
| 20260904134003 | 74 | 295 | 2.0 | 4.0 | 0.00 | 0.19 | 0.00 | 86 | 1014.9 |
| 20260904133004 | 73 | 250 | 1.0 | 3.0 | 0.00 | 0.19 | 0.00 | 89 | 1014.9 |
| 20260904132005 | 72 | 228 | 4.0 | 8.0 | 0.00 | 0.19 | 0.00 | 89 | 1015.1 |
| 20260904131006 | 72 | 228 | 2.0 | 4.0 | 0.00 | 0.19 | 0.00 | 91 | 1015.3 |
| 20260904130006 | 71 | 250 | 1.0 | 3.0 | 0.00 | 0.19 | 0.00 | 92 | 1015.4 |
| 20260904125001 | 71 | 273 | 4.0 | 7.0 | 0.00 | 0.19 | 0.00 | 91 | 1015.5 |
| 20260904124002 | 71 | 273 | 1.0 | 5.0 | 0.00 | 0.19 | 0.00 | 92 | 1015.6 |
| 20260904123004 | 72 | 273 | 2.0 | 5.0 | 0.00 | 0.19 | 0.00 | 92 | 1015.6 |
| 20260904122005 | 72 | 250 | 1.0 | 3.0 | 0.00 | 0.19 | 0.00 | 94 | 1015.6 |
| 20260904121005 | 71 | 250 | 2.0 | 3.0 | 0.00 | 0.19 | 0.00 | 96 | 1015.6 |
| 20260904120006 | 70 | 228 | 1.0 | 3.0 | 0.00 | 0.19 | 0.00 | 97 | 1015.3 |
| 20260904115001 | 68 | 228 | 1.0 | 2.0 | 0.00 | 0.19 | 0.00 | 98 | 1015.2 |
| 20260904114002 | 68 | 228 | 2.0 | 3.0 | 0.00 | 0.19 | 0.00 | 98 | 1015.3 |
| 20260904113002 | 68 | 250 | 2.0 | 3.0 | 0.00 | 0.19 | 0.00 | 98 | 1015.4 |
| 20260904112003 | 67 | 228 | 3.0 | 4.0 | 0.00 | 0.19 | 0.00 | 98 | 1015.1 |
| 20260904111004 | 67 | 160 | 2.0 | 4.0 | 0.00 | 0.19 | 0.00 | 98 | 1015.1 |
| 20260904110005 | 67 | 228 | 2.0 | 3.0 | 0.00 | 0.19 | 0.00 | 98 | 1015.0 |
| 20260904105006 | 67 | 228 | 2.0 | 4.0 | 0.00 | 0.19 | 0.00 | 98 | 1014.9 |
| 20260904104001 | 67 | 228 | 1.0 | 3.0 | 0.00 | 0.19 | 0.00 | 98 | 1014.9 |
| 20260904103002 | 67 | 205 | 2.0 | 3.0 | 0.00 | 0.19 | 0.00 | 98 | 1014.8 |
| 20260904101002 | 67 | 205 | 2.0 | 3.0 | 0.00 | 0.19 | 0.00 | 98 | 1014.8 |
| 20260904100003 | 67 | 228 | 2.0 | 3.0 | 0.00 | 0.19 | 0.00 | 98 | 1014.9 |
| 20260904094003 | 67 | 228 | 2.0 | 3.0 | 0.00 | 0.19 | 0.00 | 98 | 1014.9 |
| 20260904093004 | 67 | 205 | 3.0 | 4.0 | 0.00 | 0.19 | 0.00 | 98 | 1015.0 |
| 20260904092005 | 67 | 205 | 2.0 | 3.0 | 0.00 | 0.19 | 0.00 | 98 | 1014.8 |
| 20260904085003 | 68 | 250 | 0.0 | 1.0 | 0.00 | 0.19 | 0.00 | 98 | 1014.9 |
| 20260904084005 | 68 | 250 | 1.0 | 3.0 | 0.00 | 0.19 | 0.00 | 98 | 1015.0 |
| 20260904083005 | 68 | 250 | 3.0 | 4.0 | 0.00 | 0.19 | 0.00 | 98 | 1015.0 |
| 20260904082005 | 68 | 273 | 1.0 | 3.0 | 0.00 | 0.19 | 0.00 | 98 | 1014.9 |
| 20260904081007 | 68 | 250 | 3.0 | 5.0 | 0.00 | 0.19 | 0.00 | 98 | 1014.9 |
| 20260904080002 | 68 | 160 | 2.0 | 3.0 | 0.00 | 0.19 | 0.00 | 98 | 1014.9 |
| 20260904075003 | 68 | 273 | 2.0 | 4.0 | 0.00 | 0.19 | 0.00 | 98 | 1014.8 |
| 20260904073003 | 68 | 250 | 1.0 | 3.0 | 0.00 | 0.19 | 0.00 | 98 | 1014.8 |
| 20260904072004 | 68 | 273 | 1.0 | 3.0 | 0.00 | 0.20 | 0.00 | 98 | 1014.8 |
| 20260904071006 | 68 | 295 | 3.0 | 4.0 | 0.00 | 0.20 | 0.00 | 98 | 1014.8 |
| 20260904070005 | 68 | 273 | 6.0 | 7.0 | 0.00 | 0.20 | 0.00 | 98 | 1014.8 |
| 20260904065006 | 68 | 250 | 5.0 | 7.0 | 0.00 | 0.20 | 0.00 | 98 | 1014.9 |
| 20260904064001 | 68 | 228 | 5.0 | 6.0 | 0.00 | 0.21 | 0.00 | 98 | 1014.8 |
| 20260904063003 | 68 | 273 | 4.0 | 5.0 | 0.00 | 0.22 | 0.00 | 98 | 1014.9 |
| 20260904062004 | 68 | 250 | 4.0 | 6.0 | 0.00 | 0.23 | 0.00 | 98 | 1014.8 |
| 20260904061005 | 67 | 295 | 0.0 | 1.0 | 0.00 | 0.24 | 0.00 | 98 | 1014.8 |
| 20260904060005 | 68 | 273 | 1.0 | 3.0 | 0.00 | 0.24 | 0.00 | 98 | 1014.7 |
| 20260904055026 | 68 | 250 | 2.0 | 4.0 | 0.00 | 0.24 | 0.00 | 98 | 1014.6 |
| 20260904054001 | 68 | 228 | 4.0 | 4.0 | 0.00 | 0.25 | 0.00 | 98 | 1014.5 |
| 20260904053003 | 68 | 228 | 4.0 | 5.0 | 0.00 | 0.25 | 0.00 | 98 | 1014.5 |
| 20260904052003 | 68 | 250 | 2.0 | 3.0 | 0.00 | 0.25 | 0.00 | 98 | 1014.6 |
| 20260904051004 | 68 | 228 | 3.0 | 5.0 | 0.00 | 0.25 | 0.00 | 98 | 1014.7 |
| 20260904045004 | 69 | 228 | 3.0 | 4.0 | 0.00 | 0.25 | 0.00 | 97 | 1014.6 |
| 20260904044005 | 69 | 250 | 4.0 | 6.0 | 0.00 | 0.25 | 0.00 | 97 | 1014.8 |
| 20260904043007 | 69 | 250 | 4.0 | 6.0 | 0.00 | 0.26 | 0.00 | 97 | 1014.7 |
| 20260904042001 | 69 | 273 | 3.0 | 4.0 | 0.00 | 0.32 | 0.00 | 97 | 1014.6 |
| 20260904040007 | 69 | 205 | 1.0 | 2.0 | 0.00 | 0.57 | 0.00 | 97 | 1014.4 |
| 20260904035001 | 69 | 250 | 3.0 | 4.0 | 0.00 | 0.57 | 0.57 | 97 | 1014.6 |
| 20260904034003 | 69 | 228 | 3.0 | 4.0 | 0.00 | 0.57 | 0.57 | 97 | 1014.7 |
| 20260904033004 | 69 | 250 | 1.0 | 2.0 | 0.00 | 0.57 | 0.57 | 97 | 1014.5 |